THOR ALTAIR R/B, 1583

Orbit data source: Space-Track

THOR ALTAIR R/B, 1583 is space debris in SSO originally from a launch on Fri, 10 Sep 1965 UTC launched from the Air Force Western Test Range (AFWTR). Debris objects in space refer to the collection of defunct objects orbiting the Earth. Examples of debris include non-operational satellites, rocket bodies, and fragments generated from explosions, collisions, or faulty payload assembly.

Loading next visibility...
THOR ALTAIR R/B details
Identifier
1583, 1965-072D
Orbit
SSO
Last TLE update1 day ago
Origin
Flag of USUSAF SSD (US)
ManufacturerUTC
MissionSpacecraft
Bus & MotorFW4, Unknown motor
Mass25 kg wet, 25 kg dry
Launch date (UTC)
1965-09-10 (59 years ago)
Launch vehicleUnknown
Launch site
Air Force Western Test Range (AFWTR)
Object type
Payload
Rocket body
Debris
Shape & HBRCyl, 1.5 m
Radar Cross Section0.687 m², Medium (>0.1 m² and < 1m²)

Expand to show TLE details & history

TLE from 1 day ago
0 THOR ALTAIR R/B
1  1583U 65072D   25017.55034401  .00002861  00000-0  49335-3 0  9998
2  1583  98.4559 235.5295 0146640  42.2896 318.9502 14.62492882112213
Epoch: 2025-01-17T13:12Z
Definitive object data (Epoch: 2025-01-17T13:12:29.722Z)
Latitude-0.00001°
Longitude-79.80671°
Altitude610.656 km
Speed7.595 km/s
True Right ascension15h 42m 07s
True Declination0° 00' 00"
Sunlit
Object was in daylight at TLE epoch
Visualization TLE readout
Latitude25.83128°
Longitude-82.71517°
Altitude587.118 km
Speed7.623 km/s
Apparent Right ascension12h 05m 06s
Apparent Declination-14° 52' 31"
Sunlit
Object is in daylight
Visualization observer readout
Local Sidereal Time18:07:13
Azimuth258.809° W
Elevation-9.877°
Doppler factor1
Orbital elements
Apogee altitude785.758 km
Perigee altitude578.692 km
Semi-major axis7,060.362 km
Eccentricity0.014664
Inclination98.4559°
RAAN235.5295°
Arg. of periapsis42.2896°
True anomaly317.83129°
Mean anomaly318.9502°
Eccentric anomaly318.39229°
Mean motion3.6585 °/min
BSTAR0.00049335
Orbital period98.4 mins
Loading maneuver chart data...
Loading historical data...
Loading historical data...
Loading historical data...
Loading historical data...
Loading historical data...
Loading historical data...
Loading historical data...

THOR ALTAIR R/B Visibility forecast

Observer location: undefined°, undefined

Span
Click to sort rows by Start time (UTC) header in descending order
Start Az.
Max El. time (UTC)
Max El. Az.
Max El.
End time (UTC)
End Az.
8 mins2025-01-19 03:32:14.255Z4.623° NNE2025-01-19 03:35:14.255Z319.082° NNW41.51°2025-01-19 03:40:14.255Z204.915° SW
6 mins2025-01-19 14:36:14.255Z182.905° SSW2025-01-19 14:38:14.255Z226.819° WSW40.452°2025-01-19 14:42:14.255Z338.747° N
|